TimeMST,TemperatureF,Dew PointF,Humidity,Sea Level PressureIn,VisibilityMPH,Wind Direction,Wind SpeedMPH,Gust SpeedMPH,PrecipitationIn,Events,Conditions,WindDirDegrees,DateUTC
12:53 AM,32.0,30.9,96,30.48,9.0,Calm,Calm,-,N/A,,Overcast,0,2012-03-09 07:53:00
1:53 AM,32.0,30.0,92,30.51,10.0,East,3.5,-,N/A,,Overcast,80,2012-03-09 08:53:00
2:03 AM,32.0,28.4,87,30.47,10.0,Calm,Calm,-,N/A,,Overcast,0,2012-03-09 09:03:00
2:53 AM,30.9,28.9,92,30.51,10.0,ENE,5.8,-,N/A,,Overcast,60,2012-03-09 09:53:00
3:53 AM,30.9,28.0,89,30.50,10.0,NNW,3.5,-,N/A,,Overcast,340,2012-03-09 10:53:00
4:53 AM,28.9,25.0,85,30.48,10.0,North,5.8,-,N/A,,Scattered Clouds,10,2012-03-09 11:53:00
5:53 AM,27.0,21.9,81,30.50,10.0,North,4.6,-,N/A,,Clear,360,2012-03-09 12:53:00
6:53 AM,26.1,23.0,88,30.53,10.0,East,4.6,-,N/A,,Clear,80,2012-03-09 13:53:00
7:53 AM,26.1,23.0,88,30.56,10.0,East,3.5,-,N/A,,Partly Cloudy,100,2012-03-09 14:53:00
8:34 AM,28.4,24.8,86,30.46,10.0,ENE,5.8,-,N/A,,Mostly Cloudy,60,2012-03-09 15:34:00
8:53 AM,28.9,26.1,89,30.56,10.0,East,4.6,-,N/A,,Overcast,80,2012-03-09 15:53:00
9:53 AM,30.9,26.1,82,30.55,10.0,ESE,3.5,-,N/A,,Overcast,120,2012-03-09 16:53:00
10:46 AM,33.8,26.6,75,30.44,10.0,North,3.5,-,N/A,,Scattered Clouds,10,2012-03-09 17:46:00
10:53 AM,35.1,27.0,72,30.51,10.0,Variable,3.5,-,N/A,,Partly Cloudy,0,2012-03-09 17:53:00
11:53 AM,37.9,27.0,65,30.45,10.0,Calm,Calm,-,N/A,,Clear,0,2012-03-09 18:53:00
12:53 PM,42.1,27.0,55,30.38,10.0,Calm,Calm,-,N/A,,Clear,0,2012-03-09 19:53:00
1:53 PM,45.0,28.0,52,30.31,10.0,Variable,3.5,-,N/A,,Clear,0,2012-03-09 20:53:00
2:53 PM,48.0,26.1,42,30.27,10.0,West,9.2,18.4,N/A,,Clear,280,2012-03-09 21:53:00
3:53 PM,48.0,24.1,39,30.25,10.0,West,5.8,-,N/A,,Clear,270,2012-03-09 22:53:00
4:53 PM,46.9,23.0,39,30.25,10.0,West,5.8,-,N/A,,Partly Cloudy,260,2012-03-09 23:53:00
5:53 PM,45.0,24.1,44,30.26,10.0,WSW,8.1,-,N/A,,Clear,250,2012-03-10 00:53:00
6:53 PM,39.9,25.0,55,30.28,10.0,SW,4.6,-,N/A,,Clear,230,2012-03-10 01:53:00
7:53 PM,36.0,25.0,64,30.30,10.0,North,5.8,-,N/A,,Clear,360,2012-03-10 02:53:00
8:53 PM,36.0,21.9,57,30.29,10.0,Calm,Calm,-,N/A,,Clear,0,2012-03-10 03:53:00
9:53 PM,30.9,24.1,76,30.32,10.0,Calm,Calm,-,N/A,,Clear,0,2012-03-10 04:53:00
10:53 PM,28.9,24.1,82,30.30,10.0,NE,3.5,-,N/A,,Mostly Cloudy,40,2012-03-10 05:53:00
11:53 PM,30.0,24.1,79,30.27,10.0,Calm,Calm,-,N/A,,Overcast,0,2012-03-10 06:53:00